Retour au catalogue

TIANHUI 2-01A

ActifScienceSSO
NORAD 44207·PAYLOAD·🇨🇳 China

Lancé Apr 29, 2019 depuis Taiyuan Satellite Launch Center

Loading…

Prochains Passages (prochaines 24 heures)

TLE

FraisSource: Space-Track

Époque: Sep 14, 2026, 11:40 UTC

1 44207U 19024A   26257.48631281  .00001255  00000-0  67380-4 0  9999
2 44207  97.4848 260.2535 0001543 106.3184 253.8219 15.16747988115674

Suivez TIANHUI 2-01A en temps réel avec AllMySat

Download on the App Store